This is the latest recevied weather packets stored in our database for station/object N1IJV-10. If no packets are shown the sender has not sent any weather packets the latest 10 day(s).
| Time | Temp. | Humidity | Pressure | Rain* | Wind** | Luminosity | Snow |
|---|---|---|---|---|---|---|---|
| 1777512081 | 8.33° C | 77% | 1015.7 hPa | 0 mm | - | 0 W/m² | - |
| 1777511779 | 8.89° C | 77% | 1015.6 hPa | 0 mm | - | 0 W/m² | - |
| 1777511475 | 8.89° C | 77% | 1015.6 hPa | 0 mm | - | 0 W/m² | - |
| 1777511172 | 8.89° C | 76% | 1015.4 hPa | 0 mm | - | 0 W/m² | - |
| 1777510868 | 8.89° C | 76% | 1015.4 hPa | 0 mm | - | 0 W/m² | - |
| 1777510565 | 8.89° C | 76% | 1015.5 hPa | 0 mm | - | 0 W/m² | - |
| 1777510261 | 8.89° C | 77% | 1015.4 hPa | 0 mm | - | 0 W/m² | - |
| 1777509958 | 8.89° C | 77% | 1015.2 hPa | 0 mm | - | 1 W/m² | - |
| 1777509653 | 8.89° C | 77% | 1015.1 hPa | 0 mm | - | 3 W/m² | - |
| 1777509350 | 8.89° C | 76% | 1015 hPa | 0 mm | - | 3 W/m² | - |
| 1777509048 | 8.89° C | 75% | 1015 hPa | 0 mm | - | 5 W/m² | - |
| 1777508744 | 9.44° C | 74% | 1015.1 hPa | 0 mm | - | 8 W/m² | - |
| 1777508442 | 9.44° C | 74% | 1015.1 hPa | 0 mm | - | 11 W/m² | - |
| 1777508138 | 9.44° C | 74% | 1014.8 hPa | 0 mm | - | 10 W/m² | - |
| 1777507835 | 10° C | 73% | 1014.8 hPa | 0 mm | - | 19 W/m² | - |
| 1777507533 | 10° C | 73% | 1014.7 hPa | 0 mm | - | 21 W/m² | - |
| 1777507229 | 10° C | 72% | 1014.7 hPa | 0 mm | - | 22 W/m² | - |
| 1777506927 | 10.56° C | 72% | 1014.5 hPa | 0 mm | - | 29 W/m² | - |
| 1777506624 | 10° C | 72% | 1014.5 hPa | 0 mm | - | 50 W/m² | - |
| 1777506320 | 10° C | 72% | 1014.5 hPa | 0 mm | - | 33 W/m² | - |
| 1777506016 | 10° C | 73% | 1014.6 hPa | 0 mm | - | 31 W/m² | - |
| 1777505712 | 10° C | 74% | 1014.5 hPa | 0 mm | - | 35 W/m² | - |
| 1777505409 | 10° C | 73% | 1014.6 hPa | 0 mm | - | 39 W/m² | - |
| 1777505105 | 10° C | 73% | 1014.5 hPa | 0 mm | - | 27 W/m² | - |
| 1777504803 | 10° C | 73% | 1014.5 hPa | 0 mm | - | 33 W/m² | - |
* Rain latest hour (hover to see other rain measurements)
** Current wind speed in m/s (hover to see current wind gust speed)